Estación Meteorológica Peña el Pijo (Robertgarden) [ 07/23/19 01:11:25 CEST ]

Fecha Hora Presion(HPa) Temp (°C) Humedad % Rocio (°C) Viento ( m/s) Direccion Lluvia 1Hora(mm) Lluvia 24H(mm) LLuvia Total(mm)
2019-Jun-17 01:09:17 1011.900 - - - - WSW     330.48
2019-Jun-17 02:09:15 1011.600 - - - - WSW     330.48
2019-Jun-17 03:09:41 1011.300 - - - - WSW     330.48
2019-Jun-17 04:10:32 1011.000 - - - - WSW     330.48
2019-Jun-17 05:10:33 1010.600 - - - - WSW     330.48
2019-Jun-17 06:10:31 1010.600 - - - - WSW     330.48
2019-Jun-17 07:09:19 1011.100 - - - - WSW     330.48
2019-Jun-17 08:09:23 1011.000 - - - - WSW     330.48
2019-Jun-17 09:08:55 1011.100 - - - - WSW     330.48
2019-Jun-17 10:09:17 1010.700 - - - - WSW     330.48
2019-Jun-17 11:08:51 1010.500 - - - - WSW     330.48
2019-Jun-17 12:09:25 1010.400 - - - - WSW     330.48
2019-Jun-17 13:09:23 1010.000 - - - - WSW     330.48
2019-Jun-17 14:09:00 1009.900 - - - - WSW     330.48
2019-Jun-17 15:09:03 1009.200 - - - - WSW     330.48
2019-Jun-17 16:09:33 1008.800 - - - - WSW     330.48
2019-Jun-17 17:09:14 1008.200 - - - - WSW     330.48
2019-Jun-17 18:09:17 1007.800 - - - - WSW     330.48
2019-Jun-17 19:09:07 1007.400 - - - - WSW     330.48
2019-Jun-17 20:09:22 1008.200 - - - - WSW     330.48
2019-Jun-17 21:09:29 1008.700 - - - - WSW     330.48
2019-Jun-17 22:09:24 1009.000 - - - - WSW     330.48
2019-Jun-17 23:09:22 1009.700 - - - - WSW     330.48

Temperatura Máxima:    Temperatura Mínima:
Presión Máxima:1011.900 Hpa    Presión Mínima:1007.400 Hpa


Volver